This demonstration page uses our WeatherBlox Daily Observations layout. Learn more.

Hourly Observations for June 27, 2016

Temp ( °F °C ) Dew Point ( °F °C ) Humidity (%) Winds ( mph kmh ) Pressure ( in mb ) Visibility ( mi km ) Precip ( " mm )
12:15 am 00:15 Mostly Cloudy with Nearby Thunderstorms 68 20 60 15.5 75 75 N 8 13 30.15 1021 7 11.265408 0.03 0.762
12:35 am 00:35 Cloudy with Light Rain 68 20 60 15.8 77 77 NNE 9 15 30.15 1021 10 16.09344 0.04 1.016
12:55 am 00:55 Mostly Cloudy with Light Rain 67 19.5 62 16.8 84 84 NNW 3 6 30.15 1021 10 16.09344 0.05 1.27
1:15 am 01:15 Partly Cloudy with Nearby Thunderstorms 68 19.9 64 17.6 87 87 Calm 30.15 1021 10 16.09344 0.02 0.508
1:35 am 01:35 Mostly Cloudy with Rain 68 20 64 17.6 86 86 S 9 15 30.15 1021 10 16.09344 0.05 1.27
1:55 am 01:55 Cloudy with Light Rain 69 20.3 62 16.7 80 80 S 16 26 30.09 1019 10 16.09344 0.07 1.778
2:15 am 02:15 Cloudy with Light Rain 71 21.5 59 15.2 67 67 S 26 43 30.03 1017 10 16.09344 0.02 0.508
2:35 am 02:35 Partly Cloudy 70 20.9 59 15 69 69 SSW 15 24 30.03 1017 10 16.09344 0.02 0.508
2:55 am 02:55 Clear 70 21.1 59 15 68 68 Calm 30.03 1017 10 16.09344 0.02 0.508
3:15 am 03:15 Clear with Nearby Thunderstorms 68 20.2 60 15.8 76 76 Calm 30.06 1018 10 16.09344 0 0
3:35 am 03:35 Clear 69 20.7 60 15.4 72 72 Calm 30.03 1017 10 16.09344 0 0
3:55 am 03:55 Clear 68 20.2 60 15.6 75 75 WNW 3 6 30.06 1018 10 16.09344 0 0
4:15 am 04:15 Clear 68 19.8 60 15.7 77 77 NW 8 13 30.09 1019 10 16.09344 0 0
4:35 am 04:35 Clear 66 19.1 60 15.8 81 81 NW 7 11 30.09 1019 10 16.09344 0 0
4:55 am 04:55 Clear 65 18.5 60 15.7 84 84 NW 6 9 30.12 1020 10 16.09344 0 0
5:15 am 05:15 Clear 65 18.4 60 15.7 84 84 WNW 7 11 30.12 1020 10 16.09344 0 0
5:35 am 05:35 Clear 65 18.6 60 15.4 82 82 W 5 7 30.12 1020 10 16.09344 0 0
5:55 am 05:55 Clear 66 19 59 14.9 77 77 WSW 5 7 30.09 1019 10 16.09344 0 0
6:15 am 06:15 Sunny 68 20 57 14.1 69 69 W 6 9 30.09 1019 10 16.09344 0 0
6:35 am 06:35 Sunny 69 20.8 56 13.3 62 62 WSW 7 11 30.09 1019 10 16.09344 0 0
6:55 am 06:55 Sunny 71 21.4 56 13.3 60 60 W 6 9 30.06 1018 10 16.09344 0 0
7:15 am 07:15 Sunny 71 21.4 55 13 59 59 W 7 11 30.06 1018 10 16.09344 0 0
7:35 am 07:35 Sunny 69 20.7 57 13.9 65 65 W 5 7 30.12 1020 10 16.09344 0 0
7:55 am 07:55 Sunny 69 20.8 57 13.9 65 65 W 6 9 30.09 1019 10 16.09344 0 0
8:15 am 08:15 Sunny 70 21.3 58 14.3 64 64 ENE 9 15 30.09 1019 10 16.09344 0 0
8:35 am 08:35 Sunny 71 21.9 58 14.6 63 63 Calm 30.09 1019 10 16.09344 0 0
8:55 am 08:55 Sunny 73 22.6 60 15.7 65 65 Calm 30.09 1019 10 16.09344 0 0
9:15 am 09:15 Sunny 71 21.6 61 16.1 71 71 ENE 7 11 30.09 1019 10 16.09344 0 0
9:35 am 09:35 Sunny 72 22.2 61 16.3 69 69 E 5 7 30.09 1019 10 16.09344 0 0
9:55 am 09:55 Sunny 74 23.1 61 16.3 66 66 NNE 8 13 30.12 1020 10 16.09344 0 0
10:15 am 10:15 Sunny 76 24.2 61 15.9 60 60 ENE 8 13 30.12 1020 10 16.09344 0 0
10:35 am 10:35 Sunny 77 25 60 15.5 56 56 NE 10 17 30.12 1020 10 16.09344 0 0
10:55 am 10:55 Sunny 79 25.9 60 15.5 53 53 ENE 9 15 30.09 1019 10 16.09344 0 0
11:15 am 11:15 Sunny 80 26.5 60 15.3 50 50 ENE 7 11 30.06 1018 10 16.09344 0 0
11:35 am 11:35 Sunny 80 26.9 60 15.5 50 50 E 6 9 30.09 1019 10 16.09344 0 0
11:55 am 11:55 Sunny 82 27.6 57 14 43 43 E 8 13 30.09 1019 10 16.09344 0 0
12:15 pm 12:15 Sunny 83 28.1 59 15 45 45 ENE 8 13 30.09 1019 10 16.09344 0 0
12:35 pm 12:35 Sunny 83 28.2 58 14.4 43 43 NNE 14 22 30.09 1019 10 16.09344 0 0
12:55 pm 12:55 Sunny 83 28.1 60 15.5 46 46 NE 9 15 30.09 1019 10 16.09344 0 0
1:15 pm 13:15 Sunny 82 27.7 60 15.4 47 47 NE 8 13 30.09 1019 10 16.09344 0 0
1:35 pm 13:35 Sunny 83 28.3 61 16 47 47 NE 8 13 30.09 1019 10 16.09344 0 0
1:55 pm 13:55 Sunny 84 28.7 60 15.6 45 45 NNE 7 11 30.03 1017 10 16.09344 0 0
2:15 pm 14:15 Sunny 84 28.7 59 14.8 43 43 NE 6 9 30.03 1017 10 16.09344 0 0
2:35 pm 14:35 Sunny 84 29 58 14.3 41 41 E 7 11 30.03 1017 10 16.09344 0 0
2:55 pm 14:55 Sunny 84 29 57 13.8 39 39 Calm 30.03 1017 10 16.09344 0 0
3:15 pm 15:15 Sunny 84 28.8 58 14.3 41 41 N 5 7 30.03 1017 10 16.09344 0 0
3:35 pm 15:35 Sunny 84 29 61 16.3 46 46 NE 8 13 30 1016 10 16.09344 0 0
3:55 pm 15:55 Sunny with Nearby Thunderstorms 85 29.3 62 16.7 47 47 NE 8 13 30 1016 10 16.09344 0 0
4:15 pm 16:15 Sunny 84 29.1 60 15.8 45 45 NNE 8 13 30 1016 10 16.09344 0 0
4:35 pm 16:35 Sunny 85 29.3 59 15.2 42 42 E 6 9 30 1016 10 16.09344 0 0
4:55 pm 16:55 Sunny 85 29.4 58 14.5 40 40 NE 5 7 30 1016 10 16.09344 0 0
5:15 pm 17:15 Sunny 85 29.4 57 14 39 39 NE 7 11 30 1016 10 16.09344 0 0
5:35 pm 17:35 Sunny 85 29.2 58 14.4 40 40 NNE 5 7 30 1016 10 16.09344 0 0
5:55 pm 17:55 Sunny 84 29 62 16.6 47 47 NE 7 11 30 1016 10 16.09344 0 0
6:15 pm 18:15 Sunny 83 28.5 64 17.5 51 51 NE 8 13 30 1016 10 16.09344 0 0
6:35 pm 18:35 Sunny 82 27.6 65 18.3 57 57 NE 6 9 30.03 1017 10 16.09344 0 0
6:55 pm 18:55 Sunny 81 27.2 65 18.2 58 58 NE 7 11 30.03 1017 10 16.09344 0 0
7:15 pm 19:15 Sunny 80 26.7 67 19.4 64 64 NE 8 13 30.03 1017 10 16.09344 0 0
7:35 pm 19:35 Sunny 80 26.6 67 19.6 66 66 NNE 6 9 30.06 1018 10 16.09344 0 0
7:55 pm 19:55 Sunny 79 26.2 67 19.7 68 68 NE 6 9 30.06 1018 10 16.09344 0 0
8:15 pm 20:15 Sunny 78 25.8 68 19.8 70 70 ENE 6 9 30.06 1018 10 16.09344 0 0
8:35 pm 20:35 Sunny 77 25 68 20 74 74 NE 8 13 30.06 1018 10 16.09344 0 0
8:55 pm 20:55 Sunny 77 25 67 19.5 72 72 ENE 9 15 30.06 1018 10 16.09344 0 0
9:15 pm 21:15 Clear 77 24.9 64 17.8 65 65 ENE 9 15 30.09 1019 10 16.09344 0 0
9:35 pm 21:35 Clear 76 24.3 62 16.6 62 62 ENE 10 17 30.09 1019 10 16.09344 0 0
9:55 pm 21:55 Clear 75 23.7 62 16.5 64 64 ENE 10 17 30.09 1019 10 16.09344 0 0
10:15 pm 22:15 Clear 73 23 62 16.6 67 67 ENE 8 13 30.09 1019 10 16.09344 0 0
10:35 pm 22:35 Clear 74 23.2 61 16.3 65 65 E 12 19 30.09 1019 10 16.09344 0 0
10:55 pm 22:55 Clear 74 23.1 60 15.5 62 62 ENE 9 15 30.12 1020 10 16.09344 0 0
11:15 pm 23:15 Clear 73 22.5 60 15.3 64 64 ENE 8 13 30.12 1020 10 16.09344 0 0
11:35 pm 23:35 Clear 72 22.2 58 14.7 63 63 E 9 15 30.12 1020 10 16.09344 0 0
11:55 pm 23:55 Clear 72 22.1 58 14.6 63 63 ENE 8 13 30.12 1020 10 16.09344 0 0

Powered by AerisWeather